Location: Ehrke Reservoir
(40.0279°N, 99.6641°W)
Time: 09:13:22
(UTC+00:00)

Cosmos 1953 - Pass Details

Date: 20 January 2020
Orbit: 539 x 558 km, 82.5° (Epoch: 16 February)

Event Time Altitude Azimuth Distance (km) Brightness Sun altitude
Rises 11:29:49 0° 169° (SSE) 2,715 6.0 -27.8°
Reaches altitude 10° 11:32:03 10° 161° (SSE) 1,828 5.2 -27.4°
Maximum altitude 11:35:49 39° 92° (E) 842 3.7 -26.7°
Drops below altitude 10° 11:39:37 10° 23° (NNE) 1,850 5.2 -26.0°
Sets 11:41:53 0° 16° (NNE) 2,751 6.0 -25.5°
